Location: Lucerne Valley
(34.4439°N, 116.9669°E)
Time: 02:09:47
(UTC-08:00)

OTV 5 (USA 277) - Pass Details

Date: 08 October 2017
Orbit: 404 x 417 km, 43.0° (Epoch: 07 September)

Event Time Altitude Azimuth Distance (km) Brightness Sun altitude
Rises 04:26:01 0° 238° (WSW) 2,341 ? -21.2°
Reaches altitude 10° 04:28:07 10° 238° (WSW) 1,481 ? -21.6°
Enters shadow 04:30:40 49° 233° (SW) 539 ? -22.1°
